STARLINK-36165

Last updated on Fri Dec 19 2025 00:02:08 GMT+0000 (Coordinated Universal Time)

1 66937U 25286N 25352.58336806 -.01336159 00000+0 -71044-2 0 9997 2 66937 53.1559 21.0245 0001165 60.7733 68.5418 15.82645181 2931
UTC large
Height (km)
Speed (km/s)
/
Latitude / Longitude
Inclination (degrees)
Orbital Period (minutes)
Azimuth
Elevation
Range (km)
Doppler Factor

Next 0 passes for location: London (51.5072 / 0.1276)

Sorry there are no passes over London.